カタログに戻る

SL-6 DEB *

運用中HEO
NORAD 48262·DEBRIS·🇷🇺 Russia

打ち上げ Jul 18, 1980 から Plesetsk Cosmodrome

Loading…

次のパス (今後24時間)

TLE

経年Source: Space-Track

元期: Sep 5, 2026, 06:52 UTC

1 48262U 80063F   26248.28616420 -.00000564  00000-0  73090-2 0  9997
2 48262  63.8009 351.2237 7210416 280.7335  69.1505  2.05099866 95816

AllMySatでSL-6 DEB *をリアルタイム追跡

Download on the App Store